Wind_Speed
18 16 16 15 15 13 12 12 11 11 11 12 12 13 13 14 15 15 16 18 19 19 20 21 22 22 21 21 21 21 21 21 21 21 21 21 22 23 23 23 22 23 22 21 19 18 18 17 17 17 18 19 20 20 19 18 17 18 19 20 20 19 18 18 17 16 15 16 16 16 16 15 15 16 16 16 16 16 17 17 17 18 18 18 19
18 17 16 16 16 15 14 14 13 12 12 12 12 13 14 14 15 15 16 17 19 20 21 22 22 22 22 21 22 22 22 21 21 20 20 21 21 22 22 22 23 23 22 20 19 19 18 18 19 19 19 20 21 22 21 20 19 19 20 20 21 20 19 19 18 17 16 16 17 16 15 14 14 15 16 17 17 17 17 17 17 18 19 19 20
18 17 17 17 17 17 17 16 15 14 13 13 13 13 13 14 14 14 15 17 18 19 20 21 22 22 22 21 21 21 21 21 20 20 20 20 21 21 21 22 22 22 21 21 20 20 19 20 21 21 21 22 23 23 22 21 21 20 20 20 20 21 20 18 18 17 17 18 18 17 15 15 15 15 16 17 17 17 17 18 19 19 20 21 22
17 17 17 17 17 17 18 18 18 17 15 15 15 14 14 14 14 15 16 16 17 19 20 20 21 22 22 22 21 21 20 20 19 19 20 20 20 21 20 21 21 21 21 21 21 20 20 21 22 23 23 24 24 24 23 23 22 22 21 21 21 21 20 19 18 18 18 19 19 18 17 17 16 17 18 18 18 18 19 19 20 21 22 22 23
18 17 18 18 18 18 19 20 21 20 18 17 17 16 15 15 16 16 17 17 18 19 20 20 21 21 22 22 22 22 21 20 19 19 20 20 20 20 20 20 21 21 21 22 22 21 22 22 23 24 24 25 26 25 24 24 24 23 22 22 22 22 21 20 20 19 19 19 18 18 19 19 19 19 19 19 18 19 19 20 21 21 22 23 23
15 16 17 17 17 18 19 22 23 23 21 20 19 18 17 17 17 17 17 18 18 19 19 19 20 21 22 22 22 22 21 20 20 20 20 21 21 21 21 21 21 22 22 23 23 23 23 24 24 25 26 27 27 26 25 24 24 24 23 23 22 23 22 21 21 21 20 20 19 18 19 20 20 20 20 20 20 20 20 21 21 22 23 23 24
12 14 15 15 15 17 18 21 23 24 24 23 22 20 19 19 18 18 18 18 18 19 20 20 20 21 22 23 23 23 22 22 21 21 21 22 22 21 21 21 22 22 22 23 24 24 25 25 25 26 27 28 28 27 26 25 25 25 25 24 24 24 24 23 22 22 21 21 20 20 20 21 21 21 20 21 21 21 21 22 23 23 24 25 25
12 12 11 11 13 14 16 17 18 21 23 23 21 20 19 19 19 19 20 20 20 21 21 20 21 22 23 24 24 24 24 23 23 23 23 24 24 23 23 23 23 23 23 24 25 25 26 26 26 27 28 28 29 28 28 27 27 26 26 26 25 25 25 24 24 23 22 22 22 21 21 22 22 21 21 22 23 22 22 23 25 25 25 26 27
11 8 7 8 11 12 13 14 14 16 19 21 20 20 21 21 21 21 22 22 22 22 22 21 21 22 22 23 24 24 24 24 25 25 25 26 26 26 26 26 26 26 26 26 26 26 27 27 28 28 29 29 29 29 29 29 28 28 28 27 27 26 26 25 25 24 24 24 24 24 23 23 23 24 24 25 25 23 23 25 26 26 27 28 29
9 7 6 8 10 11 11 12 13 13 15 17 17 18 20 22 24 25 25 25 24 24 23 23 22 21 22 22 22 22 23 24 25 26 27 27 27 27 28 28 28 28 28 28 27 27 28 28 29 30 30 30 30 30 30 29 29 29 29 29 29 28 27 27 26 26 25 26 26 25 25 25 25 26 27 27 26 25 26 27 27 27 29 30 31
7 6 7 8 10 11 10 10 12 12 11 12 14 14 15 15 17 20 23 24 26 27 26 24 23 22 22 22 22 22 23 24 25 26 26 28 28 29 29 29 29 29 29 28 28 29 29 30 30 30 30 30 30 31 31 30 30 30 30 30 30 30 29 28 27 27 27 27 26 25 25 26 27 28 27 27 27 27 27 28 28 29 30 32 33
8 8 8 8 10 10 10 9 10 11 10 10 12 13 12 11 11 12 14 16 19 22 24 24 25 25 24 23 23 23 24 25 26 26 26 28 29 30 29 29 29 29 29 29 29 30 31 31 31 32 31 31 31 31 31 31 31 31 31 31 30 30 30 30 29 28 28 27 27 26 26 27 28 28 28 28 28 28 28 29 29 30 31 33 35
10 10 9 10 10 11 11 11 10 11 12 12 12 11 10 10 11 12 13 13 13 15 16 18 20 23 24 24 25 26 27 27 27 27 27 28 29 30 30 30 30 30 29 30 30 31 32 32 32 32 32 33 33 32 32 32 32 32 32 32 31 31 31 31 30 30 29 28 28 28 28 29 29 28 29 30 29 30 31 31 31 31 32 34 35
11 11 11 11 12 12 13 13 13 14 15 15 13 12 11 11 10 11 12 13 14 14 14 14 15 17 19 21 22 25 28 30 30 29 29 29 30 31 30 31 31 31 31 31 31 31 31 31 32 32 33 34 34 33 33 33 33 33 33 33 33 32 32 31 31 31 30 29 29 29 30 30 29 29 31 31 31 32 33 33 33 32 34 36 37
12 12 12 12 12 12 13 14 16 17 17 15 14 13 13 12 12 13 12 13 13 15 16 17 15 14 15 16 16 18 20 24 27 29 30 31 32 32 32 32 33 33 33 32 32 32 31 31 31 32 33 33 34 35 35 35 35 34 33 33 34 34 33 32 32 33 32 31 31 31 31 31 31 31 31 31 31 32 33 34 34 33 34 37 38
13 13 13 13 12 12 13 15 17 19 18 16 15 14 13 13 14 14 14 14 15 16 17 16 14 13 13 14 14 15 17 18 21 24 27 29 31 32 33 35 36 36 36 35 33 32 31 30 30 31 32 33 34 35 36 37 37 35 34 34 35 34 34 34 34 33 33 32 33 33 32 32 32 32 31 31 33 34 35 35 34 34 35 37 37
14 14 14 13 12 12 14 15 16 18 18 17 16 15 15 15 14 15 14 14 15 15 14 12 11 11 12 13 14 15 17 18 20 21 23 25 27 30 32 35 38 38 37 36 35 33 32 32 32 32 32 33 34 36 37 38 38 38 37 36 36 35 34 35 36 35 34 33 33 33 32 32 32 31 31 33 35 36 37 36 34 36 37 36 36
14 14 13 12 12 13 14 15 16 16 16 16 15 14 14 14 15 15 15 16 16 16 15 14 14 13 13 13 13 15 17 19 20 20 21 23 25 27 29 33 37 39 39 36 34 32 32 33 34 33 32 33 34 38 40 39 39 41 41 40 39 37 36 36 37 37 37 35 34 34 33 32 31 30 31 35 37 38 37 34 33 36 38 37 36
13 12 12 11 12 13 15 16 16 16 16 15 15 14 13 13 13 13 14 15 16 16 16 17 17 17 16 16 15 16 17 19 20 20 20 21 22 25 26 27 29 32 34 33 32 32 32 34 35 34 33 35 37 39 41 41 42 43 43 42 42 39 37 38 40 40 40 38 37 37 35 34 34 33 34 38 40 39 37 34 34 37 39 38 38
13 12 12 12 13 14 15 16 17 17 17 17 16 15 14 14 13 13 14 14 14 15 16 16 18 18 19 19 18 18 18 20 21 21 21 21 21 22 23 22 21 22 25 28 30 31 33 35 36 37 37 38 40 40 41 42 42 42 42 43 43 40 38 39 40 40 41 41 40 39 37 37 38 37 37 38 39 39 39 38 37 38 39 39 40
14 13 14 14 15 16 16 17 17 18 18 18 18 17 17 16 16 15 15 15 15 16 16 17 17 18 19 20 21 20 20 20 21 22 21 21 21 21 21 21 20 19 21 24 27 30 33 35 37 37 38 38 39 39 40 41 40 41 43 42 41 41 41 39 39 40 42 42 42 41 39 38 39 40 39 39 39 40 41 40 38 37 36 36 40
16 16 16 16 17 17 18 18 18 19 19 19 19 19 18 18 17 17 17 17 17 17 18 18 19 19 19 20 21 21 21 21 22 22 23 23 23 22 21 21 22 21 22 24 26 28 31 33 33 33 34 34 35 37 39 41 41 43 43 41 38 39 40 38 38 39 39 39 40 40 40 39 39 40 41 41 40 38 38 37 36 35 33 34 38
18 18 19 19 19 19 19 19 18 19 19 19 19 19 19 19 19 18 18 18 18 18 18 19 20 20 20 20 21 21 22 22 23 23 24 24 24 23 23 22 23 23 23 25 26 28 30 30 30 30 30 30 32 35 37 38 38 38 39 37 36 38 39 38 37 37 36 35 35 36 36 36 34 35 37 38 39 38 35 33 32 32 31 32 35
19 19 20 20 20 20 20 19 19 19 19 18 18 19 19 20 20 20 19 19 19 19 19 20 20 21 21 22 22 22 23 23 24 25 25 25 25 24 24 24 24 24 24 25 27 28 29 30 30 30 30 29 30 33 34 34 33 33 34 34 35 36 37 36 36 37 37 36 34 34 35 34 33 32 32 32 34 35 33 31 31 30 29 30 36
18 19 20 20 20 20 19 19 19 19 19 18 18 18 19 19 19 20 20 20 19 19 20 20 21 21 22 22 23 23 24 24 25 25 26 26 26 26 26 25 25 25 25 25 26 27 28 29 30 31 31 31 31 33 33 33 32 32 32 33 33 33 33 34 34 35 36 35 34 33 32 33 33 32 31 30 30 31 32 32 31 31 30 30 37
19 19 19 20 20 19 18 18 18 19 19 18 18 18 18 18 18 19 19 19 19 19 19 20 21 22 22 23 23 23 24 25 26 26 26 27 27 27 27 27 27 27 27 27 28 28 29 30 31 31 32 32 33 34 35 34 33 33 33 32 32 32 31 32 33 33 33 34 33 32 30 30 31 32 32 32 31 30 31 33 33 34 34 33 39
19 19 20 20 19 19 19 18 18 19 19 19 18 18 18 18 18 18 19 19 19 20 20 20 21 21 22 23 23 24 24 25 25 26 27 27 28 28 28 28 29 29 29 29 30 30 31 32 33 33 33 33 33 34 35 36 35 35 35 34 32 32 32 33 33 33 33 33 33 32 30 29 29 31 32 33 32 32 33 35 35 36 38 40 44
20 20 20 21 20 19 19 20 20 20 20 20 19 20 19 19 18 19 19 20 20 21 21 21 21 21 21 22 22 23 24 25 25 26 26 27 28 28 29 29 29 30 30 31 31 32 32 32 33 34 34 34 34 34 34 35 35 35 35 35 34 33 33 34 34 33 33 32 31 31 31 31 31 32 33 33 34 35 35 36 37 37 40 47 51
22 22 22 22 21 20 20 21 21 21 21 21 20 20 20 20 19 19 20 20 21 22 22 23 23 23 23 22 22 23 23 24 25 26 26 27 28 28 29 30 30 31 31 32 32 32 33 33 33 33 33 34 34 33 33 33 34 34 34 35 35 34 33 33 33 33 33 32 30 30 30 31 34 38 39 39 40 40 38 39 40 35 34 39 45
24 24 24 23 22 21 21 21 22 22 22 21 21 21 21 21 20 20 20 21 21 22 22 23 24 24 25 25 24 24 24 24 25 25 26 27 28 29 29 30 31 31 32 32 32 32 32 33 33 33 33 33 33 33 32 32 32 32 32 32 33 32 32 32 31 31 32 32 32 32 30 31 37 45 47 46 46 43 40 38 37 32 29 30 34
24 23 23 22 21 21 21 21 21 21 22 22 21 20 21 21 21 21 21 22 22 22 22 23 24 24 25 25 26 26 26 26 26 26 26 27 28 29 30 30 31 31 32 32 32 32 32 33 33 33 33 33 33 33 32 32 31 30 29 29 29 29 29 29 29 30 30 30 31 32 31 33 40 48 48 45 42 39 35 34 33 31 30 30 31
24 23 23 22 21 20 20 21 22 22 22 22 22 21 21 21 21 22 22 22 23 23 23 23 23 23 24 24 25 26 26 27 27 27 27 27 28 28 29 30 31 31 31 31 31 32 32 32 32 32 33 33 33 33 33 32 31 30 28 28 27 27 26 26 26 27 28 27 28 30 31 33 39 42 41 40 38 36 35 36 33 30 29 29 30
25 25 24 24 23 21 20 20 21 22 24 24 24 23 23 23 23 23 23 24 24 24 24 24 24 23 23 23 24 25 26 26 27 27 27 27 28 28 29 30 30 31 31 31 31 31 31 32 32 32 32 32 32 33 33 33 32 30 29 27 25 25 24 23 23 23 23 24 24 25 27 29 33 35 35 35 35 34 33 31 28 26 27 27 26
25 25 26 25 25 24 22 21 19 19 22 25 26 26 25 25 25 25 25 25 25 26 26 26 26 25 24 23 24 24 25 25 26 26 27 26 26 27 28 29 30 30 31 31 31 31 31 31 32 32 32 32 32 32 31 31 31 30 28 27 25 24 23 23 22 22 21 21 21 21 21 23 25 26 28 29 29 29 27 25 24 24 24 24 23
25 26 27 28 27 26 25 23 21 19 19 21 25 27 28 27 27 26 26 26 27 27 27 27 27 27 26 26 25 24 24 25 25 26 26 25 25 26 27 28 29 29 30 31 31 31 31 31 31 32 32 32 32 31 31 30 29 28 28 27 26 25 24 23 23 22 21 21 20 19 19 19 20 21 21 22 22 21 20 21 21 22 21 21 21
26 27 29 28 28 28 28 26 25 23 21 20 21 24 27 28 28 28 28 28 29 29 29 28 28 28 28 27 26 26 25 25 25 25 25 25 25 26 26 27 28 28 29 30 30 30 31 31 31 31 31 31 31 31 30 30 29 28 27 27 26 26 25 24 23 21 20 19 19 18 17 17 18 18 18 17 17 16 16 17 17 18 19 20 21
29 29 28 27 26 26 27 27 27 27 25 23 21 21 23 25 27 29 29 29 30 30 30 30 30 29 28 27 27 27 27 26 26 25 25 25 26 26 26 27 27 27 28 29 29 29 30 30 30 30 30 31 31 31 30 30 29 29 28 28 27 27 26 25 23 22 20 18 17 17 16 17 17 17 16 16 16 16 16 16 17 18 19 20 21
31 31 30 29 27 25 24 25 26 26 26 26 24 22 22 23 25 28 30 31 31 32 32 32 32 30 28 27 27 27 28 28 27 27 26 26 26 26 26 27 28 28 28 28 28 29 29 29 29 29 29 30 30 30 29 29 29 28 28 28 28 27 26 25 24 23 21 19 18 17 16 16 16 16 16 15 15 16 16 16 17 18 19 20 19
30 31 31 31 30 27 26 25 25 25 26 27 26 25 25 25 25 27 29 31 32 33 33 34 34 32 30 28 28 28 29 29 29 28 28 27 26 26 26 27 27 28 29 29 29 28 28 28 28 28 28 29 29 29 28 28 27 27 26 26 26 25 24 24 23 22 21 20 19 18 17 17 16 16 16 15 15 15 16 16 17 18 18 18 17
30 30 31 31 30 28 27 26 26 26 26 27 27 27 27 27 27 28 29 31 32 33 33 34 35 33 31 30 30 30 30 30 31 30 30 29 27 27 26 26 27 27 29 29 29 29 28 27 27 27 27 28 28 28 28 27 26 25 25 24 23 22 22 22 21 21 20 19 19 18 18 18 17 17 17 16 16 16 16 17 18 18 17 17 17
29 29 30 30 30 29 28 27 27 28 28 28 29 29 29 29 29 30 30 31 31 32 33 35 35 34 33 32 32 31 31 32 32 32 32 31 30 28 27 26 26 27 28 29 30 30 29 27 25 25 26 27 27 27 27 26 25 24 23 22 22 21 21 21 21 20 20 19 19 18 18 18 18 18 17 17 17 17 18 18 18 18 17 17 17
30 30 30 31 31 30 30 29 29 29 30 30 31 30 30 29 29 29 30 31 31 32 33 35 35 34 34 33 33 33 33 33 33 33 33 32 31 30 29 28 27 27 27 28 29 30 29 27 25 24 24 25 25 25 25 25 24 23 23 22 22 21 21 21 21 21 21 20 19 19 18 18 18 18 18 18 18 19 19 19 18 18 18 18 18
30 31 31 32 32 31 31 31 30 30 31 31 32 32 31 31 31 31 32 32 33 34 34 36 36 35 34 34 34 34 34 34 34 34 34 33 33 32 31 29 28 27 27 28 29 29 29 28 26 25 24 24 25 25 25 25 25 24 24 24 24 24 23 23 22 22 23 22 21 20 19 19 19 19 19 19 20 20 20 19 19 18 18 19 19
30 31 31 32 32 32 32 32 31 31 31 31 32 33 33 33 33 33 33 33 34 34 35 36 36 36 36 35 35 35 35 35 35 35 34 34 33 33 31 29 28 27 27 28 28 28 28 28 27 27 26 25 25 25 26 26 26 26 25 25 26 26 26 25 24 23 23 23 23 21 20 20 20 20 20 21 21 21 21 20 20 19 19 19 20
30 30 30 31 32 32 33 32 32 32 32 32 32 33 33 33 34 34 34 34 34 34 33 33 34 35 36 36 35 35 36 36 35 35 34 34 33 32 31 29 28 27 27 27 28 28 28 28 27 27 28 27 27 26 26 26 27 26 26 26 27 27 27 26 25 24 23 23 23 22 21 20 21 21 21 22 22 22 22 22 21 21 21 21 21
30 30 30 30 31 31 32 32 32 32 33 32 32 31 32 33 33 33 34 34 35 34 33 33 33 34 36 36 35 34 34 34 33 33 33 33 33 32 31 30 29 28 28 28 28 28 29 28 28 27 28 28 28 27 27 27 27 27 27 27 27 28 27 26 25 25 24 24 24 24 23 22 22 22 22 23 23 24 23 23 23 23 23 23 23
32 31 31 31 31 31 31 31 32 32 33 32 32 30 30 30 31 32 32 33 33 32 32 32 33 34 36 36 36 34 32 31 30 30 30 31 32 32 32 31 29 28 28 28 27 28 29 29 28 28 28 28 28 28 28 28 28 28 28 27 28 28 27 26 26 26 26 25 25 26 25 24 24 24 24 24 24 24 24 24 24 24 25 25 25
33 33 32 31 31 31 30 30 31 31 32 32 32 31 30 30 30 31 32 33 34 34 34 34 33 32 33 34 35 35 33 32 31 30 30 31 31 32 32 31 29 28 27 27 27 27 28 29 29 28 28 28 28 28 28 28 28 28 28 28 28 28 28 27 27 27 27 26 26 27 27 26 26 25 25 25 25 25 25 25 25 25 26 26 26
32 32 31 31 30 29 29 29 29 30 30 31 30 30 29 29 29 29 30 31 33 34 35 34 32 31 31 32 34 35 35 34 33 31 30 31 31 31 31 31 30 29 28 28 28 27 28 28 29 29 29 29 29 29 29 29 29 28 29 29 29 29 29 29 29 29 29 28 28 28 28 28 28 27 27 26 26 26 26 26 26 27 27 27 28
30 30 29 29 28 28 28 28 29 29 29 29 29 28 28 27 27 27 28 28 30 31 32 33 33 32 32 32 33 34 35 34 33 32 31 30 30 30 31 31 31 31 30 30 29 29 29 29 29 30 29 29 29 30 31 31 30 30 30 29 29 29 29 30 30 30 30 30 29 29 29 29 30 29 29 28 27 27 27 27 28 28 28 28 29
28 27 27 27 27 27 28 28 28 28 28 27 27 28 28 28 28 28 28 28 29 30 32 33 34 34 32 31 31 32 33 33 32 32 31 30 30 30 30 31 32 32 31 30 29 29 29 30 30 30 30 30 30 30 31 32 32 32 31 31 30 30 30 31 32 32 32 31 30 29 29 29 30 30 30 30 29 29 29 29 29 29 29 29 30
Wind_Direction
216 218 224 226 226 226 225 224 222 220 219 218 221 223 223 224 225 223 221 221 220 217 216 217 219 218 217 216 218 220 220 223 226 229 232 234 235 235 235 236 239 243 246 248 249 249 251 253 256 259 262 264 268 270 272 272 271 271 271 272 272 272 273 274 274 271 268 270 273 274 274 274 276 281 285 289 294 298 301 302 302 305 308 310 310
217 217 223 227 228 229 230 230 228 224 221 219 221 225 226 227 229 229 227 228 227 224 221 220 221 221 220 218 218 220 221 222 224 227 229 232 233 233 234 236 238 242 244 246 247 248 250 253 257 259 262 265 268 269 271 271 269 268 268 269 270 272 273 274 275 273 270 271 272 273 275 274 271 273 278 284 290 295 297 298 300 303 305 306 306
220 222 226 227 227 229 232 233 232 229 226 222 221 225 229 231 233 234 233 234 236 235 230 227 225 225 224 223 222 221 222 223 224 224 226 228 230 231 232 234 237 240 242 244 245 248 251 254 258 261 264 266 268 269 270 270 268 266 265 265 266 268 269 270 271 269 269 269 270 273 278 278 274 274 276 280 286 291 293 296 298 300 301 302 305
228 230 233 235 233 234 235 236 236 234 231 228 223 222 226 229 231 231 233 236 238 240 239 236 233 231 229 227 227 226 226 227 228 229 230 230 231 232 233 235 238 240 242 244 246 249 252 256 260 264 267 268 270 271 272 272 272 269 267 265 264 264 264 265 266 266 267 266 268 272 276 278 277 276 276 278 283 288 291 293 295 297 299 302 306
234 235 238 241 242 243 242 240 239 237 235 234 230 225 224 226 227 228 229 231 233 235 238 240 240 240 236 232 230 230 231 233 235 236 238 237 236 236 237 238 239 242 245 247 250 252 255 259 262 266 268 269 271 272 274 275 275 273 270 266 264 264 263 263 264 267 267 267 268 268 269 272 273 272 274 277 282 287 288 290 293 296 298 302 306
237 238 238 241 245 249 250 248 244 238 234 235 234 231 228 227 229 231 232 232 234 234 234 236 240 244 243 241 238 236 237 239 241 243 245 244 242 240 238 239 240 242 246 251 255 257 259 261 264 266 267 269 271 272 273 274 273 272 270 267 265 265 265 264 263 264 265 266 266 263 262 267 269 269 272 277 282 286 287 289 293 295 298 301 304
237 231 232 239 247 255 260 260 254 244 236 234 234 233 232 231 231 232 233 233 235 236 233 231 233 237 240 242 242 242 242 242 243 246 249 251 250 248 246 244 244 245 247 251 256 260 262 264 265 266 267 269 271 272 272 272 271 270 268 267 265 265 265 264 263 263 264 264 262 261 262 266 269 270 273 278 282 286 289 292 293 294 297 300 302
242 227 229 243 253 258 262 263 258 248 241 238 238 239 239 238 237 236 234 233 234 235 234 231 230 232 235 237 239 242 242 242 242 243 246 250 252 253 253 252 251 251 251 252 255 259 262 264 266 266 267 269 270 272 273 273 272 270 268 267 266 264 264 264 263 263 263 261 261 263 264 266 270 274 275 277 282 287 291 292 292 294 297 300 302
249 245 248 255 260 263 264 263 256 246 241 240 241 243 244 245 243 240 235 232 233 235 235 235 233 233 236 239 241 243 244 245 245 244 245 246 248 250 252 253 254 253 252 253 255 257 259 262 264 265 267 268 270 271 272 273 272 271 270 269 267 266 264 264 264 263 262 260 260 263 265 267 271 274 275 277 282 287 289 289 292 296 298 299 300
258 268 266 258 261 267 270 270 266 256 248 244 242 243 245 246 245 244 240 236 235 235 235 236 236 236 239 243 246 248 249 250 249 249 250 250 250 249 250 252 254 254 254 254 255 257 259 261 263 265 267 269 270 272 272 273 273 272 272 272 271 270 269 267 266 265 264 263 264 266 268 271 272 273 275 278 282 285 287 289 293 295 296 297 299
253 256 253 251 257 263 265 269 273 273 268 263 262 261 256 251 247 245 243 240 238 236 234 234 235 236 239 242 246 249 250 251 251 252 253 254 254 253 252 253 255 256 257 257 258 259 259 260 262 264 266 267 268 269 271 272 272 272 272 272 273 273 272 271 270 268 267 267 267 269 272 273 273 273 274 277 280 284 287 289 291 293 294 296 297
233 236 240 245 254 260 259 260 269 276 276 272 275 279 280 276 269 260 254 250 243 238 238 239 238 235 236 240 246 249 250 251 252 252 254 255 255 254 253 254 255 256 258 258 259 259 260 261 262 263 264 265 266 267 269 270 271 271 271 271 272 272 272 272 271 270 270 269 270 270 270 271 272 273 276 277 279 283 286 287 289 291 293 294 295
231 234 240 248 257 262 261 259 261 266 267 264 264 270 275 277 278 276 273 270 261 249 247 251 248 241 239 241 245 248 249 250 252 253 255 256 257 256 256 255 256 256 257 257 257 258 259 261 262 263 265 265 265 266 266 266 267 268 269 270 269 269 270 271 272 271 270 271 271 270 270 272 274 275 276 277 280 284 285 287 290 292 292 293 295
234 236 242 250 259 265 267 264 258 255 256 257 255 256 260 264 269 272 272 273 271 262 257 257 254 248 245 244 246 248 248 248 250 253 256 257 258 259 259 259 259 259 258 258 257 258 260 262 263 264 265 266 267 267 266 266 266 266 268 270 270 269 269 269 271 272 272 272 271 271 272 273 273 273 273 276 281 285 287 290 291 292 292 293 295
233 237 242 250 256 262 268 268 265 263 262 260 256 253 252 253 254 255 256 257 258 253 245 242 242 245 247 248 251 254 253 251 249 251 255 258 260 261 260 260 260 260 260 259 259 259 260 262 263 264 264 266 268 269 269 269 268 268 270 272 273 272 272 272 272 273 274 274 274 273 274 274 275 275 278 282 285 287 289 290 288 287 291 295 296
236 239 242 247 253 261 269 272 273 276 279 279 274 268 261 255 249 245 242 240 239 237 234 234 239 246 249 252 255 257 259 259 255 254 256 259 261 262 262 260 259 258 258 258 258 260 261 262 264 264 265 266 268 271 273 273 273 274 274 273 274 274 276 276 275 274 275 276 276 276 276 278 280 280 282 286 287 287 287 284 281 283 291 297 299
236 237 240 246 253 263 271 276 279 282 288 291 291 289 285 280 272 263 257 253 252 251 251 253 257 255 252 252 254 254 256 259 259 260 262 262 264 264 263 262 259 256 255 256 256 258 261 262 263 263 265 268 270 272 272 272 273 274 271 269 269 270 271 273 273 274 273 272 273 275 276 278 280 281 282 284 284 283 283 283 283 285 290 295 297
232 233 236 243 252 262 269 274 277 280 285 289 290 291 290 290 289 284 279 275 273 274 276 276 274 267 262 259 257 255 256 258 259 262 265 267 269 268 268 267 261 255 252 253 254 256 259 261 262 263 266 267 267 267 267 267 268 269 270 269 268 268 268 269 271 272 272 271 272 272 273 274 275 275 274 274 274 274 275 278 280 281 284 288 291
235 235 238 243 250 257 263 267 270 273 276 279 282 284 285 287 289 290 288 286 283 281 278 276 274 273 272 271 269 265 264 264 265 266 267 269 272 273 273 273 266 256 250 248 249 252 256 259 262 265 265 264 264 265 267 268 267 267 269 270 271 272 271 269 269 270 270 272 271 270 270 270 269 267 264 265 268 270 271 273 273 273 278 283 287
242 243 246 249 251 252 255 258 261 264 268 272 275 278 279 280 280 281 282 284 285 284 280 275 273 273 274 275 275 272 270 270 271 271 270 270 272 274 276 277 273 262 253 249 250 254 259 262 264 266 264 263 264 265 266 268 268 267 266 265 267 270 270 268 268 269 268 268 268 268 268 267 266 267 265 266 269 270 269 270 269 271 275 280 284
254 254 254 253 253 251 251 252 255 258 263 267 271 274 276 276 275 274 274 275 276 277 277 277 276 275 275 276 277 275 273 272 272 274 274 273 272 272 274 275 273 267 260 257 257 261 264 266 267 267 265 263 264 265 266 267 269 269 267 264 264 265 266 268 270 270 270 269 269 269 269 268 267 266 265 266 267 267 269 271 272 273 274 277 283
260 261 261 260 258 257 255 254 254 256 259 262 267 270 273 273 273 273 272 271 270 270 271 273 273 274 275 275 277 277 276 273 271 271 272 273 273 272 271 270 269 266 263 261 261 262 264 266 267 266 265 264 264 265 266 267 269 269 269 269 268 266 266 268 271 274 274 274 273 271 271 271 270 266 264 264 264 266 272 275 276 277 276 277 282
259 259 260 260 260 260 260 259 258 258 258 260 262 265 267 269 270 271 271 270 270 270 269 270 271 272 273 274 275 277 277 276 273 271 270 270 271 272 272 270 268 265 262 261 261 261 263 265 267 266 266 266 266 265 266 268 271 274 275 274 273 269 266 266 271 275 276 275 274 272 269 271 274 271 268 266 265 266 268 269 271 274 274 278 283
259 260 260 260 259 259 259 260 260 259 258 257 258 259 261 264 265 267 267 267 268 269 269 270 271 271 272 273 274 275 276 276 276 275 274 273 272 271 271 269 267 266 264 262 262 262 263 264 266 266 266 266 266 268 269 271 274 276 276 275 273 271 269 269 272 275 276 276 276 274 268 267 270 272 271 268 265 261 259 261 268 270 273 281 281
255 257 258 259 259 259 259 258 259 259 258 256 255 256 257 259 261 264 266 267 267 266 267 268 269 270 271 272 273 273 274 275 276 276 277 277 275 274 273 271 268 267 266 266 266 266 267 267 266 266 266 267 267 269 270 272 273 273 273 274 275 276 275 274 274 276 277 278 278 276 271 268 267 268 268 266 261 256 254 259 264 266 271 276 269
251 252 253 254 255 256 255 255 255 257 257 256 255 255 257 258 261 264 266 267 268 267 265 265 265 266 268 269 270 271 272 273 274 275 276 276 276 276 275 274 273 270 269 268 267 267 268 269 269 268 267 266 266 267 269 271 273 273 273 274 276 277 277 277 277 277 277 277 278 277 273 270 267 264 263 262 259 255 255 256 259 263 265 265 260
250 251 251 252 252 252 252 252 251 252 255 256 255 256 256 258 260 262 264 266 268 269 269 268 266 266 266 266 267 269 269 271 271 272 273 274 275 275 275 275 275 274 273 272 271 270 269 269 270 270 270 269 268 267 269 271 273 274 275 275 275 274 274 276 277 276 276 277 278 276 272 270 269 266 265 265 263 259 256 255 258 262 264 265 264
249 251 252 253 253 252 252 252 251 251 252 254 255 256 256 256 258 260 263 265 267 269 271 271 271 270 269 268 268 268 269 270 271 272 273 273 274 274 275 275 276 276 276 276 275 275 274 273 272 273 273 274 273 271 271 272 273 274 275 275 275 273 272 273 274 274 275 277 277 274 270 269 270 269 269 271 270 266 263 261 262 265 271 273 265
247 247 248 250 251 252 252 252 252 252 252 251 252 254 255 256 257 258 261 264 266 268 270 271 272 273 273 273 273 272 271 271 271 271 273 274 274 275 275 275 275 275 275 275 276 276 276 276 276 275 275 275 275 275 274 274 274 275 276 276 277 276 274 273 272 273 274 274 273 272 268 267 271 274 274 275 273 270 266 263 263 267 277 277 264
252 251 250 249 248 248 251 252 253 254 254 253 251 252 254 256 258 260 263 265 268 270 272 273 274 275 275 276 276 276 276 275 273 272 272 272 274 274 275 275 275 274 274 274 275 275 275 276 276 276 276 276 275 276 275 275 275 275 276 277 278 278 277 276 274 273 272 270 269 268 266 268 274 274 270 265 263 261 259 260 263 269 276 275 266
267 269 268 266 261 257 257 258 259 258 258 258 257 256 257 258 259 261 263 266 269 271 273 275 276 276 276 277 277 278 278 277 277 275 274 273 273 273 273 274 275 275 275 275 275 275 275 276 276 276 276 276 276 277 277 277 276 275 275 276 278 278 278 277 276 274 272 270 267 266 264 265 267 266 262 258 258 260 264 268 271 275 275 272 271
285 289 290 288 285 280 276 274 273 271 269 268 266 264 264 264 264 263 264 266 269 272 273 274 275 276 277 278 279 279 279 278 278 277 276 276 276 275 275 276 276 277 277 276 275 275 275 275 275 275 275 276 276 277 277 277 277 277 277 277 277 278 279 278 277 276 274 272 269 266 263 261 262 264 267 269 270 272 274 275 276 274 271 270 272
286 289 291 290 289 286 283 282 280 278 275 274 274 273 271 269 268 268 267 268 270 272 274 276 277 278 279 279 280 280 280 280 279 278 278 277 277 277 278 278 279 279 279 278 277 277 276 276 276 276 276 276 276 277 277 277 277 278 278 279 279 280 281 281 280 278 276 274 272 269 266 264 265 268 272 274 275 276 276 276 274 269 265 265 265
287 287 287 288 287 285 281 278 275 273 270 269 269 271 272 271 269 268 268 269 269 270 273 276 279 280 280 280 280 280 280 280 279 278 278 278 277 276 276 277 278 278 279 279 280 280 279 279 279 278 278 278 279 279 279 278 278 278 279 281 281 281 283 283 283 283 281 279 277 275 273 271 271 272 274 275 276 276 274 270 266 263 261 262 261
297 295 293 292 291 290 289 285 279 273 270 268 266 265 266 268 269 268 267 266 266 268 271 275 278 280 280 280 280 280 279 279 279 278 278 278 278 277 277 276 277 277 277 278 279 280 281 281 281 281 281 281 281 282 282 281 280 280 280 282 283 283 283 283 282 282 281 281 280 279 278 276 274 274 273 273 273 271 267 263 261 260 260 260 259
300 300 299 297 291 287 287 289 288 282 276 275 274 269 264 262 263 266 267 266 266 267 269 272 275 278 279 279 279 279 279 279 279 279 279 278 277 277 277 278 278 278 277 278 278 279 280 281 282 282 282 282 282 282 282 281 279 278 278 278 279 280 280 280 279 278 278 278 278 277 276 275 273 271 269 268 267 265 261 258 257 256 255 254 252
298 298 300 302 299 289 283 284 287 283 276 273 274 275 270 264 261 261 264 267 268 269 270 271 272 274 276 277 278 277 277 277 277 278 279 279 279 279 279 280 280 279 279 279 279 279 279 280 280 281 281 281 281 281 280 280 278 276 275 275 275 275 276 276 276 277 277 276 276 275 273 270 267 265 262 260 258 256 253 252 251 250 249 247 245
297 297 297 300 303 300 293 288 286 282 275 271 270 272 274 273 268 262 261 264 267 269 271 271 271 271 272 274 274 275 275 275 275 276 277 278 280 281 282 282 282 281 281 280 279 279 279 279 280 280 280 280 280 279 279 278 277 276 275 274 274 274 274 274 274 274 275 275 275 275 273 269 266 263 259 256 253 251 250 249 248 247 245 244 244
297 297 297 296 298 298 296 293 288 282 277 274 275 275 276 277 275 268 263 263 265 267 269 270 270 271 271 271 271 271 272 273 273 273 274 276 278 280 281 282 282 282 281 280 279 278 278 278 279 279 279 279 279 278 277 276 276 276 275 275 275 275 275 275 276 275 276 276 277 276 276 274 271 267 263 260 258 256 253 250 248 247 247 247 247
295 295 295 295 295 295 293 290 287 283 279 277 278 279 280 280 277 272 266 262 263 265 268 270 270 271 271 270 270 270 270 271 271 272 272 273 275 276 278 279 280 280 280 280 280 278 277 277 278 279 279 279 278 277 277 276 275 275 274 274 275 276 277 277 278 278 278 278 278 277 276 274 272 270 267 265 263 260 257 253 251 250 249 248 247
296 294 293 293 294 293 291 288 285 282 280 278 278 278 280 280 278 273 268 263 261 261 264 267 269 270 270 269 269 269 270 270 271 271 271 271 272 273 274 275 276 276 277 278 278 278 277 276 276 276 277 277 277 277 277 276 275 274 273 273 273 274 275 277 277 278 278 278 277 277 275 273 271 270 268 266 262 258 255 253 251 250 248 248 247
296 296 295 294 293 292 290 288 285 283 281 280 279 278 278 277 275 271 267 264 262 261 261 262 265 267 268 268 268 268 269 269 270 271 271 270 270 270 270 270 271 271 272 273 274 275 276 276 275 274 275 275 275 275 275 275 274 273 272 272 272 272 274 276 276 277 277 276 275 274 273 272 270 269 266 263 260 257 255 253 252 251 249 248 248
298 297 296 295 293 291 288 286 285 283 281 280 279 278 276 274 272 269 267 265 265 264 263 262 263 265 266 268 268 268 269 270 270 271 271 271 270 269 268 268 268 268 268 268 270 272 274 275 274 272 271 272 273 273 273 273 273 272 272 272 272 272 273 273 274 274 275 274 273 272 272 271 270 268 265 262 259 257 256 255 253 252 251 251 251
297 296 294 292 290 288 287 285 284 283 282 280 279 278 276 275 273 271 269 268 269 269 268 267 266 265 266 267 267 268 269 269 269 270 270 271 270 269 268 268 267 267 266 266 267 268 270 272 272 272 270 269 270 271 271 272 272 272 272 271 271 271 270 270 270 270 271 272 272 272 271 271 271 270 267 264 262 260 260 259 257 255 254 254 254
294 292 290 289 288 287 286 285 284 282 282 281 280 279 278 276 274 272 271 271 271 271 271 270 270 269 268 268 267 267 267 268 268 268 268 267 267 267 266 265 264 263 262 262 263 265 266 267 268 269 270 269 268 268 269 270 271 271 271 271 271 270 270 269 269 270 270 271 272 272 270 269 269 268 266 265 263 262 261 260 260 258 256 255 255
293 292 289 288 287 286 285 285 284 282 281 282 282 281 279 278 276 274 272 270 269 269 269 270 271 271 271 270 268 267 267 269 270 271 270 268 267 265 263 262 260 260 260 260 260 262 263 264 265 266 267 268 268 267 267 267 268 268 269 269 269 269 269 269 270 270 269 270 271 271 270 268 267 266 265 264 263 262 261 260 260 260 259 257 257
293 292 290 288 287 286 286 285 284 282 282 282 283 283 282 280 279 277 274 271 270 270 270 271 271 270 270 270 269 268 267 268 269 270 270 270 269 268 266 264 261 260 260 261 261 261 263 264 264 264 265 265 266 266 266 267 267 267 267 267 267 268 269 269 269 269 269 269 269 270 269 268 267 266 265 263 262 262 262 261 260 261 261 261 260
291 290 289 288 287 287 285 284 284 283 283 283 283 283 283 281 279 276 273 272 271 272 273 273 271 269 268 268 268 268 268 268 267 266 266 268 269 269 268 267 265 263 262 262 263 264 265 266 267 267 267 267 267 266 266 267 267 268 268 268 267 268 268 269 269 268 268 267 267 267 268 267 266 265 264 263 262 261 262 262 262 262 263 263 264
289 289 290 289 289 287 286 284 283 283 283 284 284 284 284 283 280 276 273 271 271 270 270 270 269 268 268 268 268 269 269 270 268 267 267 269 270 269 268 267 267 265 264 263 263 263 264 266 268 268 269 270 270 269 268 267 267 266 267 267 268 268 268 269 269 268 268 268 267 266 266 266 265 264 263 262 261 261 261 262 262 263 263 264 265
289 290 290 290 290 290 289 288 287 286 286 286 285 284 283 282 280 278 275 272 270 269 269 269 269 271 273 272 270 268 267 268 269 269 270 270 271 271 271 270 268 267 265 265 265 265 265 266 267 268 268 269 269 270 270 269 268 266 265 265 265 266 266 266 267 267 267 266 266 266 266 267 266 265 263 261 261 261 261 262 263 264 264 265 266
292 293 293 293 293 294 293 293 292 292 291 290 288 286 284 283 281 280 279 276 274 273 272 273 274 275 274 271 267 264 263 265 267 269 270 271 274 275 274 271 270 270 270 270 269 267 265 265 265 266 267 267 266 267 268 269 269 268 267 265 264 264 264 264 264 264 265 265 264 264 264 265 265 265 264 263 262 261 261 261 262 263 263 264 265
Height
5891 5891 5892 5892 5892 5892 5892 5892 5893 5894 5895 5896 5897 5898 5898 5899 5900 5900 5900 5901 5901 5902 5903 5904 5905 5906 5907 5908 5909 5910 5911 5912 5912 5914 5915 5916 5917 5918 5918 5919 5920 5921 5922 5923 5923 5923 5923 5923 5923 5923 5923 5924 5924 5924 5925 5926 5926 5926 5925 5924 5924 5924 5924 5924 5924 5924 5924 5923 5923 5923 5922 5922 5921 5921 5920 5920 5920 5919 5919 5918 5918 5917 5917 5916 5915
5888 5889 5890 5891 5892 5892 5891 5891 5891 5892 5893 5894 5895 5895 5896 5897 5898 5899 5900 5900 5901 5901 5901 5902 5903 5904 5905 5906 5907 5908 5909 5909 5910 5911 5912 5914 5915 5916 5916 5917 5918 5919 5919 5920 5920 5920 5921 5921 5921 5921 5921 5921 5921 5922 5922 5923 5923 5923 5922 5922 5921 5921 5921 5921 5921 5921 5921 5920 5920 5920 5920 5920 5920 5919 5918 5917 5917 5917 5916 5916 5915 5915 5914 5914 5913
5888 5888 5889 5890 5891 5891 5891 5890 5890 5890 5891 5892 5893 5894 5895 5896 5897 5898 5899 5900 5900 5901 5901 5901 5901 5902 5903 5904 5905 5906 5907 5908 5908 5909 5910 5912 5913 5914 5915 5915 5916 5917 5917 5917 5917 5918 5918 5918 5918 5918 5919 5919 5919 5919 5920 5920 5920 5920 5920 5919 5919 5918 5918 5918 5918 5918 5918 5918 5917 5917 5917 5917 5917 5916 5916 5915 5914 5914 5914 5913 5913 5912 5912 5911 5911
5887 5888 5888 5889 5890 5891 5890 5890 5890 5889 5890 5891 5891 5892 5893 5894 5895 5896 5897 5898 5899 5900 5900 5900 5900 5901 5902 5902 5903 5904 5905 5906 5907 5908 5909 5910 5911 5912 5913 5914 5915 5915 5915 5915 5916 5916 5916 5916 5916 5916 5916 5916 5916 5916 5917 5917 5917 5917 5917 5916 5916 5915 5915 5915 5915 5915 5915 5915 5914 5915 5915 5914 5914 5913 5912 5912 5912 5911 5911 5910 5910 5909 5909 5909 5908
5886 5887 5887 5887 5888 5889 5889 5889 5889 5889 5889 5889 5890 5890 5891 5892 5892 5893 5894 5895 5896 5897 5898 5899 5899 5900 5901 5901 5902 5902 5903 5904 5905 5907 5908 5909 5909 5910 5911 5912 5913 5913 5913 5913 5914 5914 5915 5915 5914 5914 5914 5914 5914 5914 5914 5915 5915 5915 5915 5914 5913 5913 5912 5912 5912 5912 5912 5911 5911 5912 5912 5912 5911 5910 5909 5909 5908 5908 5908 5907 5907 5906 5906 5906 5905
5886 5885 5885 5886 5886 5887 5887 5887 5887 5888 5888 5888 5888 5889 5889 5890 5890 5891 5892 5893 5894 5895 5896 5897 5898 5899 5900 5900 5901 5901 5902 5903 5903 5905 5906 5907 5908 5909 5909 5910 5911 5911 5911 5911 5912 5912 5913 5913 5912 5912 5912 5912 5911 5911 5912 5912 5912 5912 5912 5911 5911 5910 5910 5910 5910 5909 5909 5908 5908 5908 5908 5909 5909 5907 5906 5906 5905 5905 5905 5904 5904 5903 5903 5903 5902
5887 5886 5885 5884 5885 5885 5885 5885 5886 5887 5887 5887 5887 5888 5889 5889 5889 5890 5891 5891 5892 5893 5893 5894 5896 5897 5898 5898 5899 5899 5900 5900 5901 5902 5903 5904 5905 5906 5907 5907 5908 5908 5909 5909 5909 5909 5910 5910 5910 5910 5910 5909 5909 5908 5909 5909 5909 5909 5909 5908 5908 5907 5907 5907 5907 5907 5906 5905 5905 5905 5905 5905 5905 5904 5903 5902 5902 5902 5902 5901 5901 5900 5900 5899 5899
5888 5886 5883 5882 5883 5883 5883 5883 5884 5885 5886 5887 5887 5888 5888 5888 5888 5889 5889 5890 5890 5891 5891 5892 5892 5894 5895 5896 5896 5897 5897 5898 5899 5900 5901 5902 5902 5903 5904 5904 5904 5905 5906 5906 5906 5907 5907 5907 5907 5907 5907 5907 5906 5906 5906 5906 5906 5906 5905 5905 5905 5904 5904 5904 5904 5904 5904 5903 5902 5901 5901 5901 5901 5900 5900 5898 5897 5898 5898 5898 5897 5897 5897 5896 5895
5884 5882 5879 5879 5881 5882 5882 5882 5883 5884 5885 5886 5887 5887 5887 5887 5887 5887 5887 5887 5888 5888 5889 5889 5890 5891 5892 5893 5894 5894 5895 5896 5896 5897 5898 5899 5900 5900 5901 5901 5902 5902 5903 5903 5904 5904 5904 5904 5904 5904 5904 5903 5903 5903 5903 5903 5903 5903 5902 5902 5901 5901 5901 5901 5901 5901 5901 5900 5899 5898 5898 5898 5897 5897 5896 5895 5894 5894 5894 5894 5894 5894 5893 5893 5892
5878 5876 5877 5879 5881 5881 5882 5882 5882 5883 5884 5885 5885 5886 5885 5885 5885 5885 5884 5885 5886 5886 5887 5887 5888 5888 5889 5890 5891 5891 5892 5893 5894 5894 5895 5896 5897 5897 5898 5898 5899 5899 5900 5901 5901 5901 5901 5901 5900 5900 5900 5900 5900 5900 5900 5900 5900 5899 5899 5898 5898 5898 5898 5898 5898 5898 5898 5897 5897 5896 5895 5895 5894 5894 5893 5892 5891 5891 5891 5890 5891 5891 5890 5889 5888
5874 5875 5877 5879 5880 5881 5882 5883 5882 5883 5884 5884 5883 5883 5882 5882 5882 5882 5882 5883 5883 5883 5884 5885 5885 5885 5886 5886 5887 5888 5889 5890 5891 5891 5892 5893 5893 5894 5895 5895 5895 5896 5897 5897 5898 5898 5898 5897 5897 5897 5897 5896 5896 5896 5896 5896 5896 5895 5895 5895 5895 5895 5895 5895 5895 5895 5894 5894 5894 5894 5893 5892 5891 5890 5890 5889 5888 5887 5887 5887 5888 5887 5886 5885 5884
5875 5876 5877 5878 5879 5880 5881 5882 5882 5881 5882 5881 5880 5879 5878 5878 5878 5879 5879 5879 5880 5880 5881 5881 5881 5882 5883 5884 5885 5885 5886 5886 5887 5888 5888 5889 5890 5890 5891 5891 5891 5892 5893 5894 5894 5894 5894 5894 5894 5893 5893 5893 5892 5892 5892 5892 5892 5891 5891 5891 5891 5891 5891 5891 5891 5891 5891 5891 5891 5890 5890 5889 5888 5887 5887 5886 5885 5884 5884 5884 5884 5883 5882 5881 5880
5875 5876 5876 5877 5878 5878 5879 5881 5881 5880 5879 5878 5878 5877 5876 5875 5875 5876 5876 5876 5877 5877 5878 5878 5879 5879 5880 5881 5881 5882 5882 5882 5883 5883 5884 5885 5885 5886 5887 5887 5888 5888 5889 5890 5890 5890 5890 5890 5890 5890 5889 5889 5888 5888 5887 5887 5887 5887 5887 5887 5887 5887 5886 5886 5886 5887 5887 5887 5887 5886 5886 5885 5884 5884 5883 5881 5881 5881 5880 5880 5880 5879 5878 5877 5876
5875 5876 5876 5876 5876 5876 5876 5877 5878 5877 5876 5876 5876 5876 5876 5875 5875 5874 5874 5874 5874 5874 5874 5876 5876 5877 5877 5877 5878 5878 5878 5878 5878 5879 5880 5881 5881 5882 5883 5883 5884 5884 5885 5885 5886 5886 5886 5886 5886 5886 5885 5884 5884 5884 5883 5883 5883 5883 5883 5882 5882 5882 5882 5882 5882 5882 5882 5883 5883 5882 5882 5881 5881 5880 5878 5878 5878 5877 5876 5876 5875 5875 5874 5873 5872
5875 5875 5874 5874 5874 5874 5874 5873 5872 5872 5873 5874 5876 5877 5877 5876 5876 5875 5875 5874 5874 5873 5874 5874 5874 5874 5873 5873 5873 5873 5873 5873 5874 5875 5876 5877 5877 5878 5878 5879 5879 5879 5880 5880 5881 5882 5882 5883 5883 5883 5882 5881 5881 5880 5879 5879 5879 5880 5880 5880 5879 5878 5878 5878 5878 5877 5878 5878 5878 5878 5878 5877 5877 5876 5875 5875 5875 5873 5873 5872 5871 5870 5870 5868 5868
5873 5873 5873 5872 5872 5871 5871 5870 5869 5867 5868 5870 5872 5873 5874 5874 5874 5875 5875 5874 5874 5873 5873 5871 5869 5868 5869 5869 5869 5869 5868 5869 5870 5871 5872 5872 5873 5873 5873 5873 5873 5873 5874 5875 5876 5877 5878 5879 5879 5879 5879 5879 5878 5877 5877 5875 5875 5876 5877 5876 5875 5874 5875 5874 5874 5874 5875 5874 5874 5874 5874 5874 5873 5872 5872 5872 5871 5870 5869 5867 5866 5866 5865 5864 5864
5871 5871 5870 5870 5870 5869 5869 5869 5868 5866 5865 5865 5865 5866 5866 5866 5867 5868 5868 5868 5868 5868 5866 5864 5863 5863 5865 5865 5865 5866 5866 5866 5867 5867 5868 5868 5868 5868 5867 5867 5866 5867 5869 5870 5872 5873 5874 5874 5874 5875 5876 5876 5875 5874 5873 5872 5871 5871 5870 5870 5870 5870 5870 5870 5869 5869 5870 5870 5869 5869 5869 5870 5869 5869 5869 5868 5867 5866 5865 5863 5862 5861 5860 5860 5860
5868 5868 5868 5868 5868 5868 5868 5867 5867 5866 5865 5864 5864 5863 5862 5861 5860 5860 5860 5861 5861 5860 5859 5859 5860 5861 5862 5862 5863 5863 5863 5863 5864 5864 5865 5865 5864 5863 5862 5862 5862 5862 5863 5866 5867 5868 5868 5868 5868 5870 5872 5872 5870 5868 5866 5866 5867 5865 5863 5863 5864 5865 5866 5865 5864 5864 5864 5864 5865 5864 5864 5865 5865 5866 5866 5864 5862 5862 5860 5858 5858 5857 5856 5856 5855
5866 5866 5867 5867 5866 5866 5866 5866 5866 5865 5865 5864 5863 5863 5862 5860 5859 5858 5857 5856 5856 5856 5856 5856 5857 5858 5858 5859 5860 5860 5860 5860 5861 5861 5861 5861 5861 5860 5858 5858 5857 5857 5858 5860 5861 5862 5862 5862 5863 5865 5867 5865 5863 5862 5861 5860 5860 5860 5859 5859 5859 5860 5861 5859 5858 5858 5858 5859 5859 5859 5859 5860 5859 5860 5862 5860 5859 5858 5856 5854 5854 5853 5852 5852 5850
5864 5864 5864 5864 5864 5864 5864 5864 5864 5864 5864 5863 5862 5861 5860 5859 5858 5857 5856 5855 5854 5854 5854 5854 5854 5855 5855 5856 5856 5857 5857 5857 5857 5857 5858 5857 5857 5856 5855 5854 5853 5853 5854 5854 5855 5856 5856 5857 5859 5860 5860 5858 5857 5857 5856 5854 5854 5853 5853 5854 5854 5854 5853 5852 5851 5852 5852 5852 5853 5853 5854 5854 5853 5853 5855 5854 5854 5853 5851 5850 5850 5849 5848 5848 5846
5863 5863 5863 5862 5862 5862 5862 5862 5862 5862 5861 5861 5860 5859 5858 5858 5857 5856 5855 5854 5854 5853 5852 5852 5852 5852 5852 5853 5853 5853 5853 5853 5853 5853 5853 5853 5853 5853 5852 5852 5851 5850 5850 5850 5851 5851 5852 5853 5854 5854 5854 5853 5853 5852 5851 5850 5849 5847 5846 5848 5850 5848 5846 5846 5846 5846 5846 5847 5848 5848 5849 5849 5848 5848 5849 5849 5849 5847 5846 5846 5845 5844 5844 5843 5842
5861 5861 5861 5861 5861 5861 5860 5860 5860 5859 5859 5858 5857 5857 5856 5855 5855 5854 5853 5853 5852 5852 5851 5851 5850 5850 5850 5850 5850 5850 5850 5850 5849 5849 5849 5849 5849 5849 5849 5849 5848 5848 5848 5848 5848 5848 5848 5848 5849 5849 5849 5849 5848 5847 5846 5844 5843 5842 5841 5844 5846 5843 5842 5841 5841 5841 5842 5843 5843 5843 5843 5843 5843 5843 5843 5843 5843 5843 5843 5842 5841 5840 5840 5839 5839
5860 5860 5860 5860 5860 5859 5859 5858 5858 5857 5856 5856 5855 5854 5853 5853 5852 5852 5851 5851 5850 5850 5849 5849 5848 5848 5848 5848 5847 5847 5847 5847 5846 5846 5845 5845 5845 5845 5845 5846 5845 5846 5846 5845 5845 5845 5844 5844 5844 5844 5845 5845 5843 5842 5840 5839 5840 5839 5839 5839 5839 5837 5836 5836 5836 5836 5836 5837 5837 5837 5837 5838 5837 5837 5837 5837 5837 5837 5838 5838 5837 5837 5836 5836 5835
5858 5858 5858 5858 5858 5857 5857 5857 5856 5855 5854 5853 5853 5852 5851 5850 5850 5849 5849 5848 5848 5848 5847 5847 5846 5846 5845 5845 5845 5844 5844 5844 5843 5842 5842 5842 5842 5842 5842 5842 5842 5842 5842 5842 5841 5841 5840 5840 5840 5840 5840 5840 5839 5836 5835 5835 5836 5835 5834 5833 5832 5831 5831 5831 5832 5831 5830 5830 5831 5832 5831 5832 5832 5832 5831 5831 5831 5831 5832 5833 5833 5832 5832 5832 5831
5855 5854 5854 5854 5854 5854 5855 5854 5853 5852 5851 5851 5850 5849 5848 5848 5847 5847 5846 5846 5845 5845 5845 5844 5844 5843 5843 5842 5842 5841 5841 5841 5840 5839 5839 5838 5838 5838 5838 5838 5838 5838 5837 5837 5837 5837 5836 5836 5836 5835 5835 5835 5835 5832 5831 5830 5830 5829 5828 5827 5826 5827 5827 5827 5827 5826 5826 5826 5826 5826 5826 5827 5827 5826 5826 5826 5825 5826 5827 5827 5827 5827 5827 5828 5827
5851 5850 5850 5850 5851 5851 5851 5851 5850 5849 5848 5848 5847 5847 5846 5846 5845 5844 5844 5843 5843 5842 5842 5842 5841 5841 5840 5840 5839 5839 5838 5838 5837 5836 5836 5835 5835 5835 5834 5834 5834 5834 5834 5833 5833 5833 5832 5831 5831 5830 5830 5829 5829 5828 5826 5826 5825 5824 5822 5822 5822 5822 5822 5822 5822 5822 5822 5821 5821 5821 5821 5821 5821 5821 5821 5820 5820 5821 5821 5821 5822 5822 5822 5823 5821
5846 5846 5846 5846 5847 5847 5847 5847 5846 5845 5844 5844 5844 5844 5844 5844 5843 5842 5841 5841 5840 5840 5840 5839 5839 5838 5838 5837 5837 5836 5835 5835 5834 5833 5833 5832 5832 5831 5831 5831 5830 5830 5830 5829 5829 5829 5828 5827 5826 5825 5824 5824 5824 5823 5822 5821 5820 5819 5818 5817 5818 5818 5818 5818 5817 5817 5817 5816 5816 5816 5816 5816 5816 5815 5815 5815 5815 5815 5816 5816 5816 5816 5815 5815 5815
5842 5842 5842 5843 5843 5844 5843 5843 5842 5842 5841 5841 5841 5841 5841 5841 5840 5840 5839 5839 5838 5838 5837 5836 5836 5835 5835 5834 5834 5833 5832 5832 5831 5830 5830 5829 5829 5828 5828 5827 5827 5826 5826 5825 5825 5824 5823 5823 5822 5820 5819 5819 5818 5818 5817 5816 5815 5815 5814 5813 5813 5813 5814 5813 5813 5812 5812 5812 5812 5811 5810 5810 5810 5809 5809 5810 5810 5810 5811 5811 5811 5811 5810 5808 5807
5838 5837 5837 5838 5839 5839 5839 5839 5839 5839 5839 5839 5838 5838 5837 5837 5837 5837 5836 5836 5835 5835 5834 5834 5833 5833 5832 5831 5830 5830 5829 5829 5828 5827 5827 5826 5826 5825 5825 5824 5824 5823 5823 5822 5821 5820 5819 5818 5817 5816 5815 5814 5813 5813 5813 5812 5811 5810 5809 5808 5808 5808 5808 5808 5808 5807 5807 5807 5807 5806 5805 5805 5804 5804 5804 5805 5805 5806 5806 5806 5806 5807 5807 5806 5805
5834 5833 5832 5833 5834 5835 5835 5835 5836 5836 5836 5836 5836 5836 5835 5835 5835 5834 5834 5833 5833 5832 5832 5831 5830 5830 5829 5828 5827 5827 5826 5825 5825 5824 5824 5823 5822 5822 5821 5821 5820 5820 5819 5818 5817 5817 5816 5814 5813 5812 5811 5810 5810 5809 5808 5808 5808 5807 5806 5805 5804 5803 5803 5803 5802 5802 5802 5802 5802 5801 5801 5801 5800 5799 5798 5798 5798 5799 5800 5800 5801 5802 5803 5803 5803
5833 5832 5831 5832 5832 5833 5834 5834 5834 5835 5835 5835 5835 5835 5834 5833 5833 5833 5832 5831 5831 5830 5829 5829 5828 5827 5826 5826 5825 5824 5823 5822 5821 5821 5820 5819 5819 5818 5817 5817 5816 5816 5815 5814 5814 5813 5812 5811 5809 5809 5808 5807 5806 5805 5804 5804 5803 5803 5802 5801 5800 5800 5799 5798 5798 5797 5797 5797 5797 5796 5796 5796 5795 5793 5792 5792 5791 5791 5793 5794 5795 5797 5797 5798 5799
5834 5833 5833 5833 5834 5835 5835 5835 5835 5835 5834 5834 5834 5833 5833 5832 5831 5831 5830 5829 5829 5828 5827 5826 5825 5824 5824 5823 5822 5821 5820 5819 5818 5817 5816 5815 5815 5814 5814 5813 5812 5812 5811 5810 5810 5809 5808 5807 5806 5805 5804 5803 5802 5801 5800 5800 5799 5799 5798 5798 5797 5796 5796 5795 5794 5793 5792 5792 5792 5791 5791 5790 5789 5788 5787 5786 5786 5786 5787 5788 5790 5792 5793 5793 5794
5831 5830 5829 5829 5830 5831 5832 5832 5832 5832 5832 5832 5831 5831 5830 5829 5828 5828 5827 5827 5826 5825 5824 5823 5822 5822 5821 5820 5819 5818 5817 5816 5815 5814 5813 5812 5811 5811 5810 5809 5808 5808 5807 5806 5806 5805 5804 5803 5802 5801 5800 5799 5798 5797 5796 5796 5795 5794 5794 5794 5793 5793 5792 5792 5791 5790 5789 5788 5788 5787 5787 5786 5785 5783 5783 5782 5782 5782 5782 5783 5784 5786 5787 5787 5788
5826 5825 5824 5824 5824 5824 5825 5826 5826 5826 5825 5825 5825 5825 5825 5825 5824 5824 5823 5823 5822 5820 5819 5819 5818 5818 5817 5816 5815 5814 5813 5812 5811 5810 5809 5809 5808 5807 5806 5805 5805 5804 5803 5802 5802 5801 5800 5799 5798 5797 5796 5795 5794 5793 5792 5792 5791 5790 5790 5789 5789 5788 5788 5788 5787 5787 5786 5785 5784 5784 5783 5782 5781 5780 5779 5779 5778 5778 5778 5779 5780 5781 5782 5782 5783
5822 5822 5821 5820 5820 5820 5820 5821 5821 5820 5819 5818 5818 5818 5819 5819 5819 5819 5818 5818 5817 5815 5815 5814 5814 5813 5813 5812 5812 5811 5810 5809 5808 5807 5806 5805 5804 5803 5802 5801 5800 5800 5799 5799 5798 5797 5796 5795 5794 5793 5792 5791 5790 5789 5788 5788 5787 5786 5786 5785 5785 5784 5784 5784 5783 5783 5782 5782 5781 5781 5780 5779 5778 5777 5777 5776 5776 5775 5776 5776 5777 5777 5778 5779 5779
5818 5817 5816 5816 5816 5816 5816 5817 5817 5817 5816 5815 5814 5813 5813 5813 5813 5813 5813 5812 5811 5810 5810 5809 5809 5808 5808 5808 5808 5807 5806 5805 5804 5803 5802 5801 5800 5799 5798 5797 5796 5796 5795 5794 5794 5793 5793 5792 5791 5790 5789 5788 5787 5786 5785 5784 5783 5783 5782 5782 5781 5781 5780 5780 5779 5779 5779 5778 5778 5777 5777 5776 5776 5775 5775 5774 5774 5773 5773 5774 5774 5775 5775 5776 5777
5813 5813 5812 5812 5811 5810 5810 5811 5811 5811 5811 5810 5809 5808 5808 5808 5809 5809 5808 5807 5806 5805 5805 5804 5803 5803 5803 5803 5803 5802 5802 5801 5800 5799 5798 5797 5796 5795 5794 5793 5792 5792 5791 5790 5790 5789 5789 5788 5788 5787 5786 5785 5783 5782 5781 5780 5780 5779 5779 5778 5778 5777 5777 5776 5776 5775 5775 5775 5774 5774 5774 5774 5773 5773 5773 5772 5772 5772 5772 5772 5772 5772 5773 5773 5774
5808 5808 5808 5807 5806 5805 5804 5804 5805 5805 5805 5804 5803 5803 5802 5802 5803 5804 5804 5803 5802 5801 5799 5798 5797 5797 5797 5797 5797 5797 5796 5796 5795 5794 5794 5793 5792 5791 5790 5789 5788 5788 5787 5786 5785 5785 5785 5784 5783 5783 5782 5781 5780 5779 5778 5777 5776 5775 5775 5775 5774 5774 5773 5773 5772 5772 5771 5771 5771 5770 5770 5770 5770 5770 5770 5769 5769 5769 5769 5769 5769 5770 5770 5771 5771
5804 5803 5803 5802 5801 5800 5799 5799 5798 5799 5798 5798 5798 5797 5796 5796 5796 5797 5798 5798 5797 5796 5795 5793 5792 5792 5792 5792 5792 5791 5791 5790 5790 5790 5789 5788 5788 5787 5786 5785 5784 5783 5782 5781 5781 5781 5780 5780 5779 5779 5778 5777 5776 5775 5774 5773 5773 5772 5771 5771 5770 5770 5769 5769 5768 5768 5767 5767 5767 5767 5767 5766 5766 5766 5766 5766 5766 5766 5766 5766 5766 5767 5767 5767 5767
5800 5799 5798 5797 5796 5795 5795 5794 5793 5793 5793 5793 5792 5792 5791 5791 5791 5791 5791 5791 5791 5791 5790 5789 5788 5788 5788 5787 5786 5786 5785 5785 5785 5785 5784 5783 5783 5782 5781 5780 5780 5779 5778 5777 5776 5775 5775 5775 5775 5774 5774 5773 5772 5771 5771 5770 5769 5768 5768 5767 5767 5766 5765 5765 5765 5764 5764 5763 5763 5763 5763 5763 5763 5763 5763 5763 5763 5763 5763 5763 5764 5764 5764 5764 5765
5794 5794 5793 5792 5791 5790 5790 5789 5789 5788 5788 5788 5787 5787 5786 5786 5786 5785 5785 5784 5785 5785 5784 5783 5783 5783 5783 5782 5781 5781 5780 5780 5779 5779 5779 5778 5778 5777 5776 5776 5775 5774 5773 5772 5771 5770 5770 5770 5770 5770 5770 5769 5768 5768 5767 5766 5766 5765 5765 5764 5764 5763 5763 5762 5762 5761 5761 5761 5760 5760 5760 5760 5760 5760 5760 5760 5760 5760 5761 5761 5761 5761 5761 5762 5762
5788 5788 5787 5787 5786 5785 5785 5784 5784 5783 5782 5782 5782 5781 5781 5781 5780 5780 5779 5778 5778 5778 5778 5777 5776 5777 5777 5777 5776 5776 5775 5774 5774 5774 5773 5773 5772 5771 5771 5771 5770 5770 5769 5767 5766 5765 5765 5765 5766 5765 5765 5764 5764 5764 5763 5763 5762 5762 5761 5761 5760 5760 5760 5759 5759 5758 5758 5758 5758 5757 5757 5757 5757 5757 5757 5757 5757 5758 5758 5758 5758 5758 5758 5759 5759
5783 5782 5782 5782 5782 5781 5780 5779 5778 5778 5777 5777 5776 5776 5776 5775 5775 5774 5774 5773 5773 5772 5772 5771 5770 5770 5770 5771 5771 5770 5770 5769 5769 5768 5768 5768 5767 5766 5766 5766 5766 5765 5764 5763 5761 5761 5760 5760 5761 5761 5760 5760 5760 5759 5759 5759 5758 5758 5758 5757 5757 5756 5756 5756 5756 5755 5755 5754 5754 5754 5754 5754 5754 5754 5754 5754 5754 5754 5754 5755 5755 5755 5755 5755 5756
5778 5778 5778 5777 5777 5776 5775 5774 5774 5773 5772 5771 5771 5770 5770 5769 5769 5769 5768 5768 5768 5767 5766 5765 5765 5764 5764 5764 5764 5764 5764 5763 5762 5762 5762 5762 5761 5760 5760 5760 5760 5760 5759 5758 5757 5756 5755 5755 5755 5755 5755 5755 5755 5755 5754 5754 5754 5753 5753 5753 5752 5752 5752 5752 5752 5752 5751 5750 5750 5751 5751 5751 5751 5751 5751 5751 5751 5751 5751 5751 5751 5751 5752 5752 5752
5774 5774 5773 5773 5772 5771 5770 5769 5768 5768 5767 5766 5765 5764 5764 5763 5763 5763 5763 5763 5762 5761 5761 5760 5759 5758 5758 5757 5757 5757 5757 5756 5756 5756 5755 5755 5755 5754 5754 5754 5754 5754 5753 5753 5752 5751 5750 5750 5750 5750 5750 5750 5750 5750 5750 5750 5749 5749 5749 5748 5748 5748 5748 5748 5748 5748 5747 5747 5746 5746 5747 5747 5747 5747 5747 5747 5747 5747 5747 5747 5747 5748 5748 5749 5749
5769 5769 5769 5768 5767 5766 5765 5763 5762 5762 5761 5760 5760 5759 5758 5757 5757 5757 5757 5756 5756 5756 5755 5755 5754 5753 5752 5751 5751 5751 5751 5750 5750 5750 5749 5749 5748 5748 5748 5748 5748 5748 5748 5748 5747 5746 5746 5745 5746 5746 5746 5745 5745 5745 5745 5745 5745 5745 5745 5744 5744 5743 5743 5744 5743 5743 5743 5743 5742 5742 5742 5743 5743 5743 5744 5744 5744 5744 5744 5744 5744 5744 5744 5745 5745
5765 5765 5764 5763 5762 5761 5760 5758 5757 5756 5755 5755 5754 5754 5753 5752 5752 5751 5751 5750 5750 5750 5750 5750 5749 5748 5747 5746 5746 5746 5745 5745 5745 5744 5744 5743 5743 5743 5742 5742 5743 5743 5743 5743 5743 5742 5741 5741 5741 5741 5741 5741 5741 5741 5740 5740 5740 5740 5740 5740 5739 5739 5739 5739 5739 5739 5739 5739 5738 5738 5738 5738 5739 5739 5739 5740 5740 5740 5740 5740 5740 5740 5740 5740 5741
5761 5760 5760 5759 5758 5757 5756 5754 5753 5751 5750 5749 5749 5748 5748 5747 5747 5746 5746 5745 5745 5745 5744 5744 5744 5743 5743 5742 5741 5740 5740 5740 5739 5739 5739 5739 5738 5738 5738 5738 5738 5738 5738 5738 5738 5738 5737 5736 5736 5736 5736 5736 5736 5736 5736 5736 5735 5735 5735 5734 5734 5734 5734 5734 5734 5734 5734 5734 5734 5734 5733 5733 5734 5734 5734 5735 5735 5736 5736 5736 5736 5736 5736 5736 5736
5757 5756 5756 5755 5754 5752 5751 5750 5748 5747 5746 5745 5744 5743 5743 5742 5742 5741 5741 5741 5740 5739 5739 5738 5738 5738 5738 5737 5736 5735 5735 5734 5734 5734 5734 5734 5734 5733 5733 5733 5733 5733 5733 5733 5733 5733 5733 5732 5731 5731 5731 5731 5731 5731 5730 5730 5730 5730 5729 5729 5729 5729 5729 5729 5729 5728 5729 5729 5730 5730 5729 5729 5729 5730 5730 5730 5731 5731 5731 5731 5732 5732 5732 5732 5732
5753 5752 5751 5750 5749 5748 5746 5745 5744 5743 5742 5741 5740 5739 5738 5737 5736 5736 5736 5736 5736 5735 5734 5734 5733 5733 5733 5733 5732 5731 5730 5729 5728 5728 5729 5729 5729 5729 5728 5728 5727 5727 5727 5728 5728 5728 5728 5727 5726 5726 5726 5726 5726 5725 5725 5725 5725 5724 5724 5724 5724 5724 5724 5724 5723 5723 5723 5724 5724 5725 5725 5725 5724 5725 5725 5726 5726 5726 5727 5727 5727 5727 5728 5728 5728
5749 5748 5746 5745 5744 5743 5742 5740 5739 5738 5737 5736 5735 5734 5733 5732 5732 5731 5731 5731 5731 5731 5731 5730 5729 5728 5728 5728 5727 5726 5725 5724 5724 5723 5723 5724 5724 5724 5724 5723 5722 5721 5722 5722 5723 5723 5722 5722 5722 5721 5720 5720 5720 5720 5720 5719 5719 5719 5719 5720 5720 5720 5719 5719 5718 5718 5718 5718 5719 5720 5720 5720 5720 5720 5720 5720 5721 5721 5722 5722 5722 5722 5723 5723 5723